Flag for U.S.A. Weather past 2 weeks in Norfolk, Virginia, U.S.A.

Now
48 °F

Partly sunny.


Feels Like: 45 °F
Forecast: 34 / 47 °F
Wind: 7 mph from Northwest

Location: Norfolk Naval Air Station

Current Time: Dec 18, 2014 at 4:25:14 PM

Latest Report: Dec 18, 2014 at 3:59 PM


Visibility: 10 mi

Pressure: 30.10 "Hg

Humidity: 39%

Dew point: 24 °F

Location of NorfolkLocation

Historic Weather in Norfolk — Graph

°F

Norfolk temperature yesterday

Maximum temperature yesterday: 61 °F (at 1:59 PM)
Minimum temperature yesterday: 44 °F (at 6:59 AM)
Average temperature yesterday: 52 °F

Past Weeks' High & Low Weather Summary

 TemperatureHumidityPressure
High65 °F (Dec 16, 12:59 PM)90% (Dec 6, 6:59 PM)30.51 "Hg (Dec 6, 6:59 PM)
Low36 °F (Dec 12, 11:59 PM)29% (Dec 12, 1:59 PM)29.81 "Hg (Dec 10, 1:59 PM)
Average48 °F65%30.13 "Hg
* Reported Dec 3 2:59 PM — Dec 18 2:59 PM, Norfolk, Weather by CustomWeather, © 2014

Note: Actual official high and low records may vary slightly from our data, if they occured in-between our weather recording intervals... More about our weather records

Advertising

Norfolk weather history for previous 24 hours

 ConditionsComfort  
Time TempWeatherWind HumidityBarometerVisibility
2:59 PM
Dec 18
49 °FScattered clouds.8 mph35%30.09 "Hg10 mi
1:59 PM48 °FScattered clouds.10 mph39%30.10 "Hg10 mi
12:59 PM47 °FPassing clouds.8 mph42%30.12 "Hg10 mi
11:59 AM47 °FPassing clouds.7 mph42%30.14 "Hg10 mi
10:59 AM46 °FPassing clouds.10 mph44%30.18 "Hg10 mi
9:59 AM45 °FPassing clouds.12 mph45%30.19 "Hg10 mi
8:59 AM43 °FPassing clouds.10 mph51%30.19 "Hg10 mi
7:59 AM41 °FPassing clouds.12 mph58%30.17 "Hg10 mi
6:59 AM40 °FPassing clouds.16 mph58%30.16 "Hg10 mi
5:59 AM40 °FClear.12 mph58%30.13 "Hg10 mi
4:59 AM40 °FClear.7 mph63%30.11 "Hg10 mi
3:59 AM42 °FClear.12 mph57%30.10 "Hg10 mi
2:59 AM43 °FClear.12 mph56%30.11 "Hg10 mi
1:59 AM45 °FClear.12 mph56%30.09 "Hg10 mi
12:59 AM46 °FPassing clouds.10 mph61%30.06 "Hg10 mi
11:59 PM
Dec 17
48 °FPassing clouds.13 mph63%30.04 "Hg10 mi
10:59 PM49 °FPassing clouds.5 mph64%30.04 "Hg10 mi
9:59 PM51 °FPassing clouds.6 mph59%30.03 "Hg10 mi
8:59 PM49 °FPassing clouds.5 mph66%30.03 "Hg10 mi
7:59 PM52 °FPassing clouds.5 mph61%30.03 "Hg10 mi
6:59 PM53 °FPassing clouds.6 mph61%30.03 "Hg10 mi
5:59 PM53 °FPassing clouds.8 mph59%30.02 "Hg10 mi
4:59 PM57 °FPassing clouds.6 mph49%29.99 "Hg10 mi
Weather by CustomWeather, © 2014

See weather overviewHow to use our weather pages